St. Cloud, MN

4:33 PM CDT on October 23, 2017 (GMT -0500)
Saint Cloud Regional

Weather History for KSTC - June, 2014

Change the Weather History Date:

Saturday, June 28, 2014

  Actual Average Record
Temperature  
Mean Temperature 77 °F 69 °F  
Max Temperature 85 °F 81 °F 102 °F (1931)
Min Temperature 69 °F 57 °F 44 °F (1911)
Degree Days  
Heating Degree Days 0 1  
Month to date heating degree days 26 76  
Since 1 June heating degree days 26 76  
Since 1 July heating degree days 9524 8530  
Cooling Degree Days 12 5  
Month to date cooling degree days 116 85  
Year to date cooling degree days 160 110  
Since 1 June cooling degree days 116 85  
Growing Degree Days 28 (Base 50)    
Moisture  
Dew Point 69 °F    
Average Humidity 78    
Maximum Humidity 90    
Minimum Humidity 65    
Precipitation  
Precipitation 0.02 in 0.14 in 2.61 in (1990)
Month to date precipitation 6.17 3.90  
Year to date precipitation 22.52 12.21  
Snow  
Snow 0.00 in 0.00 in 0.00 in ()
Month to date snowfall 0.0 0.0  
Since 1 June snowfall 0.0 0.0  
Since 1 July snowfall 75.5 45.7  
Snow Depth 0.00 in    
Sea Level Pressure  
Sea Level Pressure 29.69 in    
Wind  
Wind Speed 13 mph (SSE)    
Max Wind Speed 24 mph    
Max Gust Speed 33 mph    
Visibility 10 miles    
Events Rain , Thunderstorm    
T = Trace of Precipitation, MM = Missing Value Source: NWS Daily Summary

Daily Weather History Graph

Daily Weather History Graph

Search for Another Location

Airport or City:

Trip Planner

Search our weather history database for the weather conditions in past years. The results will help you decide how hot, cold, wet, or windy it might be!

Date:

Astronomy

Jun. 28, 2014 Rise Set
Actual Time 5:29 AM CDT 9:09 PM CDT
Civil Twilight 4:51 AM CDT 9:47 PM CDT
Nautical Twilight 4:01 AM CDT 10:37 PM CDT
Astronomical Twilight 2:52 AM CDT 11:46 PM CDT
Moon 7:00 AM CDT (6/28) 9:46 PM CDT (6/28)
Length of Visible Light 16h 55m
Length of Day
15h 39m
New Moon, 2% of the Moon is Illuminated
Jun 28
New Moon
Jul 5
First Quarter
Jul 12
Full
Jul 18
Last Quarter
Jul 26
New

Hourly Weather History & Observations

Time (CDT) Temp. Heat Index Dew Point Humidity Pressure Visibility Wind Dir Wind Speed Gust Speed Precip Events Conditions
12:53 AM 77.0 °F - 69.1 °F 76% 29.76 in 10.0 mi SSE 12.7 mph 23.0 mph N/A   Mostly Cloudy
1:53 AM 77.0 °F - 70.0 °F 79% 29.72 in 10.0 mi SSE 15.0 mph 21.9 mph N/A   Mostly Cloudy
2:53 AM 77.0 °F - 70.0 °F 79% 29.73 in 10.0 mi South 15.0 mph 21.9 mph N/A   Overcast
3:32 AM 75.2 °F - 69.8 °F 83% 29.72 in 10.0 mi South 11.5 mph - N/A   Overcast
3:53 AM 75.9 °F - 70.0 °F 82% 29.72 in 10.0 mi South 10.4 mph 19.6 mph N/A   Overcast
4:53 AM 75.0 °F - 69.1 °F 82% 29.72 in 10.0 mi SSE 9.2 mph - N/A   Mostly Cloudy
5:23 AM 75.2 °F - 69.8 °F 83% 29.71 in 10.0 mi SSE 12.7 mph - N/A   Mostly Cloudy
5:53 AM 75.9 °F - 69.1 °F 79% 29.73 in 10.0 mi SSE 16.1 mph 20.7 mph N/A   Overcast
6:24 AM 75.2 °F - 69.8 °F 83% 29.72 in 10.0 mi SSE 12.7 mph 20.7 mph N/A   Mostly Cloudy
6:34 AM 75.2 °F - 69.8 °F 83% 29.72 in 10.0 mi SSE 11.5 mph 20.7 mph N/A   Partly Cloudy
6:53 AM 75.0 °F - 69.1 °F 82% 29.72 in 10.0 mi SSE 13.8 mph - N/A   Scattered Clouds
7:07 AM 75.2 °F - 69.8 °F 83% 29.72 in 10.0 mi SSE 12.7 mph - N/A   Mostly Cloudy
7:53 AM 75.9 °F - 69.1 °F 79% 29.73 in 10.0 mi SSE 13.8 mph 21.9 mph N/A   Overcast
8:53 AM 78.1 °F - 69.1 °F 74% 29.71 in 10.0 mi SSE 15.0 mph 19.6 mph N/A   Overcast
9:53 AM 80.1 °F 82.9 °F 69.1 °F 69% 29.71 in 10.0 mi SSE 15.0 mph 24.2 mph N/A   Overcast
10:53 AM 80.1 °F 82.9 °F 69.1 °F 69% 29.70 in 10.0 mi SSE 16.1 mph 25.3 mph N/A   Overcast
11:53 AM 81.0 °F 84.1 °F 69.1 °F 67% 29.70 in 10.0 mi SSE 23.0 mph 28.8 mph N/A   Overcast
12:53 PM 80.1 °F 83.2 °F 70.0 °F 71% 29.70 in 10.0 mi SSE 11.5 mph - N/A   Overcast
1:23 PM 80.6 °F 84.6 °F 71.6 °F 74% 29.70 in 6.0 mi South 13.8 mph 23.0 mph 0.01 in Rain Light Rain
1:53 PM 82.9 °F 87.5 °F 71.1 °F 67% 29.68 in 10.0 mi SSE 19.6 mph 25.3 mph 0.01 in   Mostly Cloudy
2:53 PM 84.9 °F 90.1 °F 71.1 °F 63% 29.65 in 10.0 mi SSE 20.7 mph 29.9 mph N/A   Clear
2:59 PM 82.4 °F 86.3 °F 69.8 °F 66% 29.65 in 10.0 mi South 18.4 mph 27.6 mph N/A Thunderstorm Thunderstorm
3:20 PM 80.6 °F 83.9 °F 69.8 °F 70% 29.66 in 10.0 mi South 17.3 mph 26.5 mph N/A Rain , Thunderstorm Light Thunderstorms and Rain
3:53 PM 77.0 °F - 70.0 °F 79% 29.67 in 10.0 mi SSE 16.1 mph 26.5 mph N/A Thunderstorm Scattered Clouds
4:18 PM 77.0 °F - 69.8 °F 78% 29.66 in 10.0 mi SSE 17.3 mph 23.0 mph N/A   Scattered Clouds
4:53 PM 79.0 °F - 69.1 °F 72% 29.63 in 10.0 mi South 11.5 mph - N/A   Partly Cloudy
5:53 PM 75.0 °F - 69.1 °F 82% 29.62 in 10.0 mi ESE 8.1 mph - 0.00 in   Scattered Clouds
6:53 PM 73.9 °F - 70.0 °F 87% 29.64 in 10.0 mi SSE 12.7 mph - 0.00 in   Partly Cloudy
7:53 PM 72.0 °F - 68.0 °F 87% 29.65 in 10.0 mi SSE 9.2 mph - 0.01 in   Mostly Cloudy
8:53 PM 71.1 °F - 68.0 °F 90% 29.62 in 6.0 mi SSE 6.9 mph - N/A   Clear
9:01 PM 71.6 °F - 68.0 °F 88% 29.63 in 6.0 mi SSE 6.9 mph - N/A   Partly Cloudy
9:53 PM 71.1 °F - 68.0 °F 90% 29.67 in 8.0 mi SSE 8.1 mph - N/A   Clear
10:53 PM 72.0 °F - 68.0 °F 87% 29.68 in 10.0 mi South 9.2 mph - N/A   Clear
11:53 PM 71.1 °F - 64.9 °F 81% 29.69 in 10.0 mi South 6.9 mph - N/A   Partly Cloudy